Location: Chavannes
(47.1090°N, 0.2226°W)
Time: 15:42:56
(UTC+00:00)

Cosmos 1953 - Pass Details

Date: 16 October 2021
Orbit: 537 x 557 km, 82.5° (Epoch: 05 December)

Event Time Altitude Azimuth Distance (km) Brightness Sun altitude
Rises 18:10:48 0° 173° (S) 2,719 5.8 -10.8°
Reaches altitude 10° 18:13:00 10° 167° (SSE) 1,832 4.9 -11.2°
Maximum altitude 18:16:53 47° 94° (E) 744 2.5 -11.9°
Drops below altitude 10° 18:20:48 10° 20° (NNE) 1,854 4.8 -12.6°
Sets 18:23:02 0° 15° (NNE) 2,755 5.7 -12.9°
